(151811) = 2003 FR82

Discovered at Palomar on 2003-03-27 by NEAT.

Orbit

Orbit type: Main Belt

Note: WebGL enabled browser required.

epoch2023-09-13.0
epoch JD2460200.5
perihelion date2021-12-24.87791
perihelion JD2459573.37791
argument of perihelion (°)127.72141
ascending node (°)95.76274
inclination (°)5.29736
eccentricity0.0456756
perihelion distance (AU)2.6473229
Tisserand w.r.t. Jupiter3.3
ΔV w.r.t. Earth (km/sec)10.3
semimajor axis (AU)2.7740284
mean anomaly (°)133.77951
mean daily motion (°/day)0.21332290
aphelion distance (AU)2.901
period (years)4.62
P-vector [x]-0.72220351
P-vector [y]-0.66010660
P-vector [z]-0.20659469
Q-vector [x]0.68555392
Q-vector [y]-0.64346445
Q-vector [z]-0.34054270
absolute magnitude16.02
phase slope0.15
uncertainty0
referenceMPO 777922
observations used571
oppositions16
arc length (days)7531
first opposition used2003
last opposition used2023
residual rms (arc-secs)0.73
perturbers coarse indicatorM-v
perturbers precise indicator003Ek
first observation date used2003-03-27.0
last observation date used2023-11-08.0
computer nameMPCLINUX
JD of orbit computation2456966.824643
perihelion JD uncertainty (days)1.8494E-04
argument of perihelion uncertainty (°)6.3125E-05
ascending node uncertainty (°)4.9422E-05
inclination uncertainty (°)3.7250E-06
eccentricity uncertainty 4.3190E-08
perihelion distance uncertainty (AU)1.1416E-07
Minimum Orbit Intersection Distances (in AU)
for orbit epoch: 2460200.5, reference: E2023-VC7
Mercury2.19183
Venus1.92456
Earth1.64045
Mars1.03702
Jupiter2.07607
Saturn6.1836
Uranus15.7409
Neptune26.9449

Observations

587 total observations over interval: 2003 03 27.40935 – 2023 11 08.313090
These data are available for download (format description).

Date (UT) J2000 RA J2000 Dec Magn Location Ref
2003 03 27.40935 13 58 20.15 -03 35 06.3 20.5   644 – Palomar Mountain/NEAT MPS 76398
2003 03 27.42099 13 58 19.71 -03 35 03.0 20.6   644 – Palomar Mountain/NEAT MPS 76398
2003 03 27.43155 13 58 19.32 -03 34 59.7 20.7   644 – Palomar Mountain/NEAT MPS 76398
2003 03 31.32362 13 55 45.66 -03 17 06.1 19.7 R 699 – Lowell Observatory-LONEOS MPS 76398
2003 03 31.34345 13 55 44.81 -03 17 00.8   699 – Lowell Observatory-LONEOS MPS 76398
2003 03 31.38069 13 55 43.25 -03 16 49.9   699 – Lowell Observatory-LONEOS MPS 76398
2003 03 31.40057 13 55 42.35 -03 16 46.9   699 – Lowell Observatory-LONEOS MPS 76398
2003 04 04.38677 13 52 49.28 -02 58 06.7 19.9 V 691 – Steward Observatory, Kitt Peak-Spacewatch MPS 78386
2003 04 04.41634 13 52 47.90 -02 57 58.4 19.9 V 691 – Steward Observatory, Kitt Peak-Spacewatch MPS 78386
2003 04 04.44603 13 52 46.52 -02 57 49.9 19.9 V 691 – Steward Observatory, Kitt Peak-Spacewatch MPS 78386
2003 04 08.32255 13 49 46.45 -02 39 52.4 19.3 C 704 – Lincoln Laboratory ETS, New Mexico MPS 291320
2003 04 08.33544 13 49 45.79 -02 39 51.3 18.8 C 704 – Lincoln Laboratory ETS, New Mexico MPS 291320
2003 04 08.34735 13 49 45.34 -02 39 46.2 18.9 C 704 – Lincoln Laboratory ETS, New Mexico MPS 291320
2003 04 08.37158 13 49 44.01 -02 39 39.5 19.0 C 704 – Lincoln Laboratory ETS, New Mexico MPS 291320
2003 04 09.30673 13 48 59.36 -02 35 22.8 19.6   704 – Lincoln Laboratory ETS, New Mexico MPS 76398
2003 04 09.31823 13 48 58.78 -02 35 18.7 19.9   704 – Lincoln Laboratory ETS, New Mexico MPS 76398
2003 04 09.32972 13 48 58.21 -02 35 16.1 20.2   704 – Lincoln Laboratory ETS, New Mexico MPS 76398
2003 04 09.34161 13 48 57.55 -02 35 12.9 19.9   704 – Lincoln Laboratory ETS, New Mexico MPS 76398
2003 04 10.29631 13 48 11.33 -02 30 53.2 19.4   704 – Lincoln Laboratory ETS, New Mexico MPS 76398
2003 04 10.32000 13 48 10.28 -02 30 47.1 19.8   704 – Lincoln Laboratory ETS, New Mexico MPS 76398
2003 04 10.33172 13 48 09.68 -02 30 43.5 19.8   704 – Lincoln Laboratory ETS, New Mexico MPS 76398
2003 04 10.39184 13 48 06.62 -02 30 26.3 20.0 V 691 – Steward Observatory, Kitt Peak-Spacewatch MPS 76398
2003 04 10.41908 13 48 05.25 -02 30 19.0 20.1 V 691 – Steward Observatory, Kitt Peak-Spacewatch MPS 76398
2003 04 10.44636 13 48 03.89 -02 30 11.7 20.1 V 691 – Steward Observatory, Kitt Peak-Spacewatch MPS 76398
2003 04 25.28880 13 35 46.46 -01 31 01.8 19.3 R 699 – Lowell Observatory-LONEOS MPS 78386
2003 04 25.30326 13 35 45.81 -01 30 58.5   699 – Lowell Observatory-LONEOS MPS 78386
2003 04 25.31771 13 35 44.94 -01 30 56.2   699 – Lowell Observatory-LONEOS MPS 78386
2003 04 25.33216 13 35 44.22 -01 30 52.7   699 – Lowell Observatory-LONEOS MPS 78386
2003 04 25.35393 13 35 43.10 -01 30 48.3 19.9 V 291 – LPL/Spacewatch II MPS 78386
2003 04 25.37715 13 35 41.94 -01 30 43.7 19.8 V 291 – LPL/Spacewatch II MPS 78386
2003 04 25.40209 13 35 40.69 -01 30 38.7 19.9 V 291 – LPL/Spacewatch II MPS 78386
2004 08 11.23390 21 05 50.00 -22 05 53.1 20.1   704 – Lincoln Laboratory ETS, New Mexico MPS 112190
2004 08 11.24402 21 05 49.43 -22 05 56.5 19.6   704 – Lincoln Laboratory ETS, New Mexico MPS 112190
2004 08 11.26419 21 05 48.33 -22 06 01.8 20.4   704 – Lincoln Laboratory ETS, New Mexico MPS 112190
2004 08 22.47439 20 56 43.93 -22 52 47.6 18.8 R E12 – Siding Spring Survey MPS 112190
2004 08 22.48475 20 56 43.50 -22 52 49.8 19.6 R E12 – Siding Spring Survey MPS 112190
2004 08 22.49510 20 56 43.06 -22 52 52.3 19.3 R E12 – Siding Spring Survey MPS 112190
2004 08 22.50542 20 56 42.55 -22 52 53.9 19.5 R E12 – Siding Spring Survey MPS 112190
2005 10 22.29436 03 19 53.59 +11 53 21.9 20.1 V 691 – Steward Observatory, Kitt Peak-Spacewatch MPS 146047
2005 10 22.31174 03 19 52.80 +11 53 19.0 20.1 V 691 – Steward Observatory, Kitt Peak-Spacewatch MPS 146047
2005 10 22.32913 03 19 52.00 +11 53 15.9 20.1 V 691 – Steward Observatory, Kitt Peak-Spacewatch MPS 146047
2005 10 22.39387 03 19 49.01 +11 53 04.8 20.4 V 291 – LPL/Spacewatch II MPS 146047
2005 10 22.39783 03 19 48.83 +11 53 04.3 20.4 V 291 – LPL/Spacewatch II MPS 146047
2005 10 22.40192 03 19 48.64 +11 53 03.4 20.5 V 291 – LPL/Spacewatch II MPS 146047
2005 10 22.47470 03 19 45.26 +11 52 51.0 20.4 V 291 – LPL/Spacewatch II MPS 146047
2005 10 22.47867 03 19 45.08 +11 52 50.1 20.3 V 291 – LPL/Spacewatch II MPS 146047
2005 10 22.48250 03 19 44.91 +11 52 49.4 20.4 V 291 – LPL/Spacewatch II MPS 146047
2005 10 27.31924 03 15 59.10 +11 38 50.7 19.9 V 691 – Steward Observatory, Kitt Peak-Spacewatch MPS 146047
2005 10 27.33659 03 15 58.24 +11 38 47.2 20.2 V 691 – Steward Observatory, Kitt Peak-Spacewatch MPS 146047
2005 10 27.35386 03 15 57.37 +11 38 44.4 20.0 V 691 – Steward Observatory, Kitt Peak-Spacewatch MPS 146047
2005 10 31.29331 03 12 39.58 +11 27 14.8 20.1 V 691 – Steward Observatory, Kitt Peak-Spacewatch MPS 147458
2005 10 31.31068 03 12 38.65 +11 27 11.7 20.2 V 691 – Steward Observatory, Kitt Peak-Spacewatch MPS 147458
2005 10 31.32799 03 12 37.72 +11 27 08.6 20.1 V 691 – Steward Observatory, Kitt Peak-Spacewatch MPS 147458
2005 11 05.22515 03 08 20.05 +11 13 06.1 20.0 V 691 – Steward Observatory, Kitt Peak-Spacewatch MPS 149498
2005 11 05.25018 03 08 18.67 +11 13 02.0 20.0 V 691 – Steward Observatory, Kitt Peak-Spacewatch MPS 149498
2005 11 05.27517 03 08 17.29 +11 12 57.4 19.9 V 691 – Steward Observatory, Kitt Peak-Spacewatch MPS 149498
2005 11 05.31509 03 08 15.07 +11 12 51.4 19.2 V 703 – Catalina Sky Survey MPS 149498
2005 11 05.31993 03 08 14.78 +11 12 48.9 19.3 V 703 – Catalina Sky Survey MPS 149498
2005 11 05.32479 03 08 14.60 +11 12 49.3 19.5 V 703 – Catalina Sky Survey MPS 149498
2005 11 05.32962 03 08 14.24 +11 12 48.9 19.4 V 703 – Catalina Sky Survey MPS 149498
2005 11 10.28808 03 03 46.72 +10 59 18.9 19.7 V 703 – Catalina Sky Survey MPS 149498
2005 11 10.29454 03 03 46.36 +10 59 18.3 19.9 V 703 – Catalina Sky Survey MPS 149498
2005 11 10.30097 03 03 45.97 +10 59 17.2 19.3 V 703 – Catalina Sky Survey MPS 149498
2005 11 10.30741 03 03 45.68 +10 59 15.0 19.7 V 703 – Catalina Sky Survey MPS 149498
2006 01 28.14016 02 44 42.36 +12 34 03.2 21.6 V G96 – Mt. Lemmon Survey MPS 161755
2006 01 28.14564 02 44 42.61 +12 34 04.4 21.7 V G96 – Mt. Lemmon Survey MPS 161755
2006 01 28.15112 02 44 42.82 +12 34 06.3 21.1 V G96 – Mt. Lemmon Survey MPS 161755
2006 01 28.15660 02 44 42.97 +12 34 07.6 21.0 V G96 – Mt. Lemmon Survey MPS 161755
2007 01 17.34609 09 49 28.50 +18 21 47.6 20.4 V 691 – Steward Observatory, Kitt Peak-Spacewatch MPS 196339
2007 01 17.36340 09 49 27.89 +18 21 53.3 20.4 V 691 – Steward Observatory, Kitt Peak-Spacewatch MPS 196339
2007 01 17.38079 09 49 27.21 +18 21 58.9 20.5 V 691 – Steward Observatory, Kitt Peak-Spacewatch MPS 196339
2007 01 26.32316 09 43 17.17 +19 14 18.5 20.3 V 691 – Steward Observatory, Kitt Peak-Spacewatch MPS 197036
2007 01 26.34096 09 43 16.34 +19 14 24.5 20.3 V 691 – Steward Observatory, Kitt Peak-Spacewatch MPS 197036
2007 01 26.35902 09 43 15.48 +19 14 31.4 20.2 V 691 – Steward Observatory, Kitt Peak-Spacewatch MPS 197036
2007 02 08.30778 09 32 18.70 +20 31 42.3 19.6 R 644 – Palomar Mountain/NEAT MPS 199461
2007 02 08.32935 09 32 17.48 +20 31 49.4 19.5 R 644 – Palomar Mountain/NEAT MPS 199461
2007 02 08.34971 09 32 16.38 +20 31 56.7 19.6 R 644 – Palomar Mountain/NEAT MPS 199461
2007 02 10.30556 09 30 31.36 +20 42 58.4 19.5 R 644 – Palomar Mountain/NEAT MPS 199461
2007 02 10.32698 09 30 30.14 +20 43 06.0 19.5 R 644 – Palomar Mountain/NEAT MPS 199461
2007 02 10.34728 09 30 29.03 +20 43 12.6 19.5 R 644 – Palomar Mountain/NEAT MPS 199461
2007 02 16.25402 09 25 12.72 +21 14 32.1 20.2 V 703 – Catalina Sky Survey MPS 199461
2007 02 16.26102 09 25 12.50 +21 14 35.0 20.2 V 703 – Catalina Sky Survey MPS 199461
2007 02 16.26806 09 25 12.03 +21 14 36.2 19.5 V 703 – Catalina Sky Survey MPS 199461
2007 02 16.27509 09 25 11.78 +21 14 40.4 19.7 V 703 – Catalina Sky Survey MPS 199461
2007 02 16.29484 09 25 10.71 +21 14 45.1 20.0 R 644 – Palomar Mountain/NEAT MPS 200349
2007 02 16.31521 09 25 09.57 +21 14 51.8 20.2 R 644 – Palomar Mountain/NEAT MPS 200349
2007 02 16.33673 09 25 08.34 +21 14 58.4 19.9 R 644 – Palomar Mountain/NEAT MPS 200349
2008 04 29.41933 16 47 22.81 -17 42 22.5 19.5 V G96 – Mt. Lemmon Survey MPS 248839
